Weather History for Craig, CO

Change the Weather History Date:

Thursday, October 18, 2012

  Actual Average Record
Temperature  
Mean Temperature 39 °F 42 °F  
Max Temperature 58 °F 60 °F 79 °F (2003)
Min Temperature 20 °F 25 °F 16 °F (1996)
Degree Days  
Heating Degree Days 26 23  
Month to date heating degree days 346 349  
Since 1 July heating degree days 578 714  
Cooling Degree Days 0 0  
Month to date cooling degree days 0 0  
Year to date cooling degree days 344 142  
Moisture  
Dew Point 16 °F    
Average Humidity 50    
Maximum Humidity 84    
Minimum Humidity 15    
Precipitation  
Precipitation 0.00 in 0.06 in 0.22 in (2004)
Month to date precipitation 0.56 1.02  
Year to date precipitation 5.32 12.98  
Sea Level Pressure  
Sea Level Pressure 30.27 in    
Wind  
Wind Speed 4 mph (WSW)    
Max Wind Speed 17 mph    
Max Gust Speed 25 mph    
Visibility 10 miles    
Events      
T = Trace of Precipitation, MM = Missing Value Source: NWS Daily Summary

Daily Weather History Graph

Daily Weather History Graph

Search for Another Location

Airport:

Trip Planner

Search our weather history database for the weather conditions in past years. The results will help you decide how hot, cold, wet, or windy it might be!

Date:

Astronomy

Oct. 18, 2012 Rise Set
Actual Time 7:24 AM MDT 6:24 PM MDT
Civil Twilight 6:57 AM MDT 6:52 PM MDT
Nautical Twilight 6:25 AM MDT 7:24 PM MDT
Astronomical Twilight 5:53 AM MDT 7:55 PM MDT
Moon 11:10 AM MDT (10/18) 9:01 PM MDT (10/18)
Length of Visible Light 11h 55m
Length of Day
10h 59m
Waxing Crescent, 15% of the Moon is Illuminated
Oct 18
Waxing Crescent
Oct 21
First Quarter
Oct 29
Full
Nov 6
Last Quarter
Nov 13
New

Hourly Weather History & Observations

Time (MDT) Temp. Windchill Dew Point Humidity Pressure Visibility Wind Dir Wind Speed Gust Speed Precip Events Conditions
12:53 AM 30.0 °F 25.2 °F 15.1 °F 54% 30.22 in 10.0 mi West 4.6 mph - N/A   Clear
1:53 AM 33.1 °F 28.7 °F 14.0 °F 46% 30.20 in 10.0 mi WSW 4.6 mph - N/A   Clear
2:53 AM 28.0 °F - 15.1 °F 58% 30.24 in 10.0 mi Calm Calm - N/A   Clear
3:53 AM 25.0 °F 17.1 °F 17.1 °F 72% 30.26 in 10.0 mi ENE 6.9 mph - N/A   Clear
4:53 AM 23.0 °F - 15.1 °F 72% 30.28 in 10.0 mi Calm Calm - N/A   Clear
5:53 AM 24.1 °F - 17.1 °F 75% 30.30 in 10.0 mi Calm Calm - N/A   Clear
6:53 AM 19.9 °F - 15.1 °F 81% 30.36 in 10.0 mi Calm Calm - N/A   Clear
7:53 AM 21.0 °F - 16.0 °F 81% 30.39 in 10.0 mi Calm Calm - N/A   Clear
8:53 AM 28.0 °F - 19.9 °F 72% 30.38 in 10.0 mi Calm Calm - N/A   Clear
9:53 AM 36.0 °F - 19.9 °F 52% 30.35 in 10.0 mi Calm Calm - N/A   Clear
10:53 AM 44.1 °F - 17.1 °F 34% 30.32 in 10.0 mi Calm Calm - N/A   Clear
11:53 AM 51.1 °F - 10.0 °F 19% 30.30 in 10.0 mi West 12.7 mph - N/A   Clear
1:53 PM 55.0 °F - 10.0 °F 17% 30.23 in 10.0 mi West 10.4 mph - N/A   Clear
2:53 PM 57.0 °F - 10.9 °F 16% 30.21 in 10.0 mi West 12.7 mph 23.0 mph N/A   Clear
3:53 PM 57.9 °F - 10.9 °F 16% 30.22 in 10.0 mi NW 10.4 mph - N/A   Clear
4:53 PM 57.0 °F - 10.9 °F 16% 30.23 in 10.0 mi WSW 6.9 mph - N/A   Clear
5:53 PM 54.0 °F - 15.1 °F 22% 30.22 in 10.0 mi SW 5.8 mph - N/A   Clear
6:53 PM 45.0 °F 39.7 °F 18.0 °F 34% 30.28 in 10.0 mi SSW 10.4 mph - N/A   Clear
7:53 PM 41.0 °F - 17.6 °F 39% 30.23 in 10.0 mi Calm Calm - N/A   Clear
8:53 PM 35.1 °F - 21.0 °F 57% 30.31 in 10.0 mi Calm Calm - N/A   Clear
9:53 PM 34.0 °F 31.0 °F 19.9 °F 56% 30.29 in 10.0 mi SE 3.5 mph - N/A   Clear
10:53 PM 33.1 °F - 19.9 °F 59% 30.25 in 10.0 mi Calm Calm - N/A   Clear
11:53 PM 32.0 °F - 19.9 °F 61% 30.22 in 10.0 mi Calm Calm - N/A   Clear